FW4655 Weather Reports


Display with metric or nautical units.
time (UTC)temp
F
wind
direction
speed
MPH
gust
MPH
rain 1hr
in
rain 24hr
in
rain mn
in
humidity
%
barometer
mb
20260505012512 74 242 2.0 8.0 0.00 0.00 0.00 58 1011.3
20260505012011 73 319 2.0 8.0 0.00 0.00 0.00 59 1011.4
20260505011530 73 186 2.0 7.0 0.00 0.00 0.00 59 1011.4
20260505011016 74 326 2.0 7.0 0.00 0.00 0.00 59 1011.3
20260505010508 74 263 2.0 7.0 0.00 0.00 0.00 58 1011.2
20260505010026 74 290 2.0 7.0 0.00 0.00 0.00 57 1011.3
20260505005511 74 335 3.0 8.0 0.00 0.00 0.00 58 1011.4
20260505005010 74 300 2.0 8.0 0.00 0.00 0.00 58 1011.4
20260505004534 74 330 3.0 8.0 0.00 0.00 0.00 58 1011.4
20260505004007 74 272 3.0 8.0 0.00 0.00 0.00 58 1011.5
20260505003512 74 309 3.0 7.0 0.00 0.00 0.00 57 1011.5
20260505003029 74 292 2.0 8.0 0.00 0.00 0.00 57 1011.4
20260505002513 74 267 4.0 8.0 0.00 0.00 0.00 57 1011.5
20260505002008 74 285 3.0 6.0 0.00 0.00 0.00 57 1011.5
20260505001522 74 258 2.0 6.0 0.00 0.00 0.00 57 1011.5
20260505001010 74 243 2.0 6.0 0.00 0.00 0.00 57 1011.5
20260505000509 74 300 2.0 6.0 0.00 0.00 0.00 57 1011.7
20260505000030 74 322 3.0 7.0 0.00 0.00 0.00 57 1011.7
20260504235504 74 302 3.0 8.0 0.00 0.00 0.00 57 1011.7
20260504235005 74 297 5.0 8.0 0.00 0.00 0.00 56 1011.8
20260504234512 74 252 3.0 7.0 0.00 0.00 0.00 57 1011.7
20260504234004 74 300 3.0 7.0 0.00 0.00 0.00 55 1011.7
20260504233508 74 278 2.0 9.0 0.00 0.00 0.00 55 1011.8
20260504233017 74 2 4.0 9.0 0.00 0.00 0.00 55 1011.9
20260504232508 75 278 2.0 6.0 0.00 0.00 0.00 56 1011.8
20260504232011 74 292 2.0 8.0 0.00 0.00 0.00 57 1011.9
20260504231503 74 299 3.0 8.0 0.00 0.00 0.00 56 1012.0
20260504231004 73 301 2.0 8.0 0.00 0.00 0.00 57 1012.0
20260504230504 73 213 3.0 8.0 0.00 0.00 0.00 57 1012.1
20260504230014 73 233 4.0 8.0 0.00 0.00 0.00 56 1012.1
20260504225505 73 274 4.0 8.0 0.00 0.00 0.00 57 1012.2
20260504225006 73 293 4.0 8.0 0.00 0.00 0.00 55 1012.2
20260504224508 74 310 2.0 6.0 0.00 0.00 0.00 56 1012.3
20260504224005 73 256 2.0 7.0 0.00 0.00 0.00 57 1012.3
20260504223505 72 101 1.0 7.0 0.00 0.00 0.00 56 1012.3
20260504223014 73 17 3.0 5.0 0.00 0.00 0.00 55 1012.3
20260504222509 73 287 2.0 4.0 0.00 0.00 0.00 57 1012.3
20260504222009 72 76 1.0 6.0 0.00 0.00 0.00 57 1012.5
20260504221520 72 306 3.0 7.0 0.00 0.00 0.00 56 1012.5
20260504221007 72 317 3.0 7.0 0.00 0.00 0.00 57 1012.7
20260504220509 72 325 2.0 5.0 0.00 0.00 0.00 57 1012.7
20260504220024 72 204 3.0 7.0 0.00 0.00 0.00 57 1012.8
20260504215503 72 288 3.0 7.0 0.00 0.00 0.00 57 1012.8
20260504215004 71 317 2.0 7.0 0.00 0.00 0.00 59 1012.9
20260504214511 70 340 3.0 8.0 0.00 0.00 0.00 60 1012.9
20260504214005 69 294 3.0 10.0 0.00 0.00 0.00 60 1013.0
20260504213504 69 121 4.0 10.0 0.00 0.00 0.00 60 1013.1
20260504213026 69 315 1.0 7.0 0.00 0.00 0.00 61 1013.1
20260504212505 69 340 3.0 16.0 0.00 0.00 0.00 59 1013.2
20260504212012 69 291 2.0 16.0 0.00 0.00 0.00 60 1013.2
20260504211518 69 295 2.0 6.0 0.00 0.00 0.00 60 1013.3
20260504211007 69 226 3.0 12.0 0.00 0.00 0.00 60 1013.5
20260504210508 69 251 3.0 12.0 0.00 0.00 0.00 60 1013.5
20260504210023 69 297 3.0 7.0 0.00 0.00 0.00 62 1013.6
20260504205503 68 338 4.0 7.0 0.00 0.00 0.00 62 1013.7
20260504205003 67 270 1.0 7.0 0.00 0.00 0.00 62 1013.8
20260504204504 67 230 2.0 11.0 0.00 0.00 0.00 63 1013.9
20260504204003 67 302 5.0 11.0 0.00 0.00 0.00 64 1013.9
20260504203508 66 236 5.0 11.0 0.00 0.00 0.00 64 1013.9
20260504203008 66 258 1.0 5.0 0.00 0.00 0.00 64 1013.9
20260504202504 66 38 1.0 6.0 0.00 0.00 0.00 65 1014.1
20260504202004 65 302 3.0 7.0 0.00 0.00 0.00 65 1014.2
20260504201521 66 320 4.0 8.0 0.00 0.00 0.00 63 1014.2
20260504201010 65 342 4.0 10.0 0.00 0.00 0.00 66 1014.3
20260504200507 65 283 2.0 10.0 0.00 0.00 0.00 65 1014.3
20260504200019 65 295 1.0 7.0 0.00 0.00 0.00 66 1014.3
20260504195506 64 306 3.0 7.0 0.00 0.00 0.00 67 1014.4
20260504195011 64 340 2.0 8.0 0.00 0.00 0.00 67 1014.3
20260504194504 64 303 4.0 8.0 0.00 0.00 0.00 66 1014.4
20260504194003 64 314 1.0 6.0 0.00 0.00 0.00 66 1014.4
20260504193504 64 299 2.0 6.0 0.00 0.00 0.00 68 1014.3
20260504193008 63 207 3.0 9.0 0.00 0.00 0.00 68 1014.5
20260504192503 63 305 2.0 9.0 0.00 0.00 0.00 69 1014.6
20260504192004 63 288 4.0 7.0 0.00 0.00 0.00 68 1014.6
20260504191507 62 281 2.0 7.0 0.00 0.00 0.00 69 1014.6
20260504191003 62 276 3.0 46.0 0.00 0.00 0.00 70 1014.6
20260504190508 62 328 3.0 46.0 0.00 0.00 0.00 70 1014.8
20260504190014 62 342 2.0 10.0 0.00 0.00 0.00 70 1014.7
20260504185510 62 339 4.0 10.0 0.00 0.00 0.00 71 1014.9
20260504185011 62 314 2.0 15.0 0.00 0.00 0.00 71 1014.9
20260504184518 61 18 3.0 15.0 0.00 0.00 0.00 71 1014.9
20260504184007 61 240 2.0 8.0 0.00 0.00 0.00 72 1014.9
20260504183511 61 311 4.0 8.0 0.00 0.00 0.00 72 1014.9
20260504183024 61 299 3.0 8.0 0.00 0.00 0.00 71 1014.8
20260504182506 61 257 1.0 6.0 0.00 0.00 0.00 72 1014.9
20260504182004 60 286 1.0 9.0 0.00 0.00 0.00 72 1014.9
20260504181508 60 146 2.0 9.0 0.00 0.00 0.00 74 1014.9
20260504181004 60 309 3.0 7.0 0.00 0.00 0.00 73 1014.9
20260504180507 60 299 3.0 7.0 0.00 0.00 0.00 73 1014.9
20260504180010 60 315 3.0 7.0 0.00 0.00 0.00 73 1014.8
20260504175505 60 236 3.0 7.0 0.00 0.00 0.00 74 1014.9
20260504175009 59 269 2.0 7.0 0.00 0.00 0.00 75 1014.8
20260504174514 59 287 3.0 7.0 0.00 0.00 0.00 74 1014.9
20260504174009 59 243 1.0 5.0 0.00 0.00 0.00 75 1014.9
20260504173513 59 303 1.0 5.0 0.00 0.00 0.00 76 1014.7
20260504173031 58 309 2.0 6.0 0.00 0.00 0.00 77 1014.8
20260504172508 58 293 3.0 6.0 0.00 0.00 0.00 76 1014.9
20260504172012 58 1 1.0 4.0 0.00 0.00 0.00 76 1014.8
20260504171525 58 292 0.0 6.0 0.00 0.00 0.00 77 1014.7
20260504171012 57 282 0.0 6.0 0.00 0.00 0.00 78 1014.7
20260504170505 57 37 3.0 9.0 0.00 0.00 0.00 78 1014.7
20260504151013 55 211 4.0 7.0 0.00 0.00 0.00 81 1014.3
20260504150511 55 294 3.0 8.0 0.00 0.00 0.00 80 1014.3
20260504141014 55 289 2.0 9.0 0.00 0.00 0.00 81 1013.6
20260504140508 55 300 4.0 8.0 0.00 0.00 0.00 81 1013.5
20260504130513 55 293 1.0 8.0 0.00 0.00 0.00 80 1012.3
20260504110503 60 307 4.0 13.0 0.00 0.00 0.00 72 1010.8
20260504100504 63 290 2.0 9.0 0.00 0.00 0.00 69 1010.1
20260504082007 62 216 0.0 0.0 0.00 0.00 0.00 68 1009.3
20260504081511 62 216 0.0 0.0 0.00 0.00 0.00 68 1009.3
20260504081007 62 214 0.0 0.0 0.00 0.00 0.00 69 1009.2
20260504080507 62 214 0.0 0.0 0.00 0.00 0.00 69 1009.1
20260504050507 77 42 0.0 3.0 0.00 0.00 0.00 42 1008.1
20260504050015 78 48 1.0 6.0 0.00 0.00 0.00 42 1008.1
20260504045507 78 46 2.0 6.0 0.00 0.00 0.00 42 1008.2
20260504045009 78 74 1.0 5.0 0.00 0.00 0.00 42 1008.1
20260504044534 78 62 1.0 5.0 0.00 0.00 0.00 41 1008.1
20260504044007 78 42 1.0 3.0 0.00 0.00 0.00 42 1008.0
20260504043507 79 68 0.0 2.0 0.00 0.00 0.00 41 1008.0
20260504043023 79 13 0.0 4.0 0.00 0.00 0.00 41 1008.0
20260504042508 80 44 1.0 6.0 0.00 0.00 0.00 40 1008.0
20260504042009 80 64 2.0 6.0 0.00 0.00 0.00 40 1008.0
20260504041522 80 65 1.0 5.0 0.00 0.00 0.00 40 1007.9
20260504041007 80 66 2.0 5.0 0.00 0.00 0.00 40 1007.9
20260504040510 80 4 1.0 6.0 0.00 0.00 0.00 40 1007.8
20260504040022 80 47 3.0 6.0 0.00 0.00 0.00 40 1007.7
20260504035511 81 27 2.0 5.0 0.00 0.00 0.00 40 1007.7
20260504035007 81 23 2.0 5.0 0.00 0.00 0.00 40 1007.5
20260504034513 81 61 2.0 5.0 0.00 0.00 0.00 40 1007.5
20260504034006 81 331 0.0 3.0 0.00 0.00 0.00 40 1007.5
20260504033513 82 53 0.0 3.0 0.00 0.00 0.00 38 1007.5
20260504033018 82 95 0.0 3.0 0.00 0.00 0.00 38 1007.4
20260504032507 83 70 0.0 3.0 0.00 0.00 0.00 37 1007.4
20260504032009 83 58 1.0 5.0 0.00 0.00 0.00 36 1007.4
20260504031524 84 44 0.0 5.0 0.00 0.00 0.00 36 1007.4
20260504031008 84 92 1.0 6.0 0.00 0.00 0.00 35 1007.3
20260504030510 85 81 2.0 6.0 0.00 0.00 0.00 34 1007.3
20260504030024 85 50 1.0 5.0 0.00 0.00 0.00 34 1007.3
20260504025508 85 91 3.0 7.0 0.00 0.00 0.00 33 1007.2
20260504025009 86 36 2.0 8.0 0.00 0.00 0.00 33 1007.2
20260504024525 86 61 2.0 9.0 0.00 0.00 0.00 32 1007.2
20260504024012 86 50 3.0 10.0 0.00 0.00 0.00 32 1007.1
20260504023508 86 101 2.0 10.0 0.00 0.00 0.00 32 1007.1
20260504023015 87 53 5.0 8.0 0.00 0.00 0.00 31 1007.2
20260504022510 87 53 2.0 7.0 0.00 0.00 0.00 31 1007.0
20260504022010 87 324 3.0 9.0 0.00 0.00 0.00 31 1007.1
20260504021531 88 47 3.0 10.0 0.00 0.00 0.00 31 1007.1
20260504021009 88 47 5.0 10.0 0.00 0.00 0.00 30 1007.1
20260504020507 88 56 5.0 10.0 0.00 0.00 0.00 30 1007.1
20260504020024 89 110 5.0 9.0 0.00 0.00 0.00 30 1007.1
20260504015513 89 83 4.0 9.0 0.00 0.00 0.00 30 1007.1
20260504015009 89 40 3.0 8.0 0.00 0.00 0.00 30 1007.1
20260504014523 89 25 3.0 8.0 0.00 0.00 0.00 30 1007.1
20260504014010 89 77 2.0 7.0 0.00 0.00 0.00 29 1007.2
20260504013509 90 85 3.0 11.0 0.00 0.00 0.00 29 1007.1
20260504013035 90 47 4.0 11.0 0.00 0.00 0.00 28 1007.2